Terminal Aerodrome Forecast
Issued by NWS St Louis, MO

Home | Current Version | Previous Version | Text Only | Print | Product List | Glossary On
Versions: 1 2 3 4 5 6 7 8 9 10 11 12 13 14 15 16
000
FTUS43 KLSX 181734
TAFCOU
TAF
KCOU 181734Z 1818/1918 33020G33KT 4SM -SHRA OVC010
      TEMPO 1818/1820 2SM -SHRA BR OVC008
     FM182000 33021G34KT P6SM VCSH OVC025
     FM182100 32020G32KT P6SM BKN080
     FM182200 32018G33KT P6SM SCT200
     FM190000 31015G21KT P6SM SKC
     FM190800 31009KT P6SM SKC=

USA.gov is the U.S. government's official web portal to all federal, state and local government web resources and services.